Regional Weather Roundup
Issued by NWS

Home | Current Version | Previous Version | Text Only | Print | Product List | Glossary On
Versions: 1 2 3 4 5 6 7 8 9 10 11 12 13 14 15 16 17 18 19 20 21 22 23 24 25 26 27
000
ASUS44 KLIX 232013
RWRLA
LOUISIANA WEATHER ROUNDUP
NATIONAL WEATHER SERVICE NEW ORLEANS LA
200 PM CST TUE JAN 23 2018

NOTE: "FAIR" INDICATES FEW OR NO CLOUDS BELOW 12,000 FEET WITH NO
      SIGNIFICANT WEATHER AND/OR OBSTRUCTIONS TO VISIBILITY.
      SKY/WX - SKY CONDITION AND SIGNIFICANT WEATHER.
      TMP - AIR TEMPERATURE.    DP   - DEWPOINT TEMPERATURE.
      RH  - RELATIVE HUMIDITY.  PRES - PRESSURE.
      HX  - HEAT INDEX.         WCI  - WIND CHILL INDEX.

*  THESE STATIONS ARE NOT NWS OR FAA STATIONS AND ARE NOT UNDER
   NWS QUALITY CONTROL.

LAZ040-048-061>063-065-066-069-232100-
SOUTHEAST LOUISIANA

CITY           SKY/WX    TMP DP  RH WIND       PRES   REMARKS
N.O. INTL ARPT PTSUNNY   63  27  25 NW13G18   30.15F
N.O. LAKEFRONT FAIR      55  40  56 W10       30.15F
N.O. DOWNTOWN* FAIR      62  26  25 VRB7      30.16S
RESERVE*       FAIR      66  23  19 NW13      30.15F
SLIDELL        FAIR      65  23  20 VRB6      30.13F
BATON ROUGE    FAIR      63  22  20 N9        30.16F
BOOTHVILLE     FAIR      61  33  35 NW12      30.15F
BELLE CHASSE   PTSUNNY   63  29  27 N8        30.15S
BOGALUSA*      FAIR      65  27  23 N9G17     30.14S
GALLIANO*      FAIR      64  20  18 NW12      30.15F
NEW ROADS*     FAIR      60  30  32 NW10      30.18S
GONZALES*      FAIR      63  23  21 N8        30.15F
HAMMOND*       FAIR      63  27  25 N10G18    30.14F
HOUMA*         MOSUNNY   64  21  19 NW12      30.15F
PORT FOURCHON* CLEAR     63  23  22 N7        30.16F

$$

LAZ041-044-053-054-232100-
SOUTHWEST LOUISIANA

CITY           SKY/WX    TMP DP  RH WIND       PRES   REMARKS
LAKE CHARLES   FAIR      62  25  24 N9        30.20F
LAFAYETTE      FAIR      62  24  23 NW10G21   30.18F
PATTERSON      FAIR      64  22  20 NW9       30.17F
SALT POINT       N/A     57  40  52 VRB6      30.16F
NEW IBERIA     FAIR      64  21  19 NW10      30.18F
CHENAULT AIRPK NOT AVBL

$$

LAZ027-028-232100-
CENTRAL LOUISIANA

CITY           SKY/WX    TMP DP  RH WIND       PRES   REMARKS
FORT POLK      FAIR      58  23  25 NW7       30.20F
ALEXANDRIA INT FAIR      57  30  35 NW6       30.19F
ALEXANDRIA     FAIR      60  26  27 VRB6      30.19F

$$

LAZ001-002-232100-
NORTHWEST LOUISIANA

CITY           SKY/WX    TMP DP  RH WIND       PRES   REMARKS
SHREVEPORT     MOSUNNY   59  18  20 NW8       30.21F
BARKSDALE AFB  FAIR      57  21  24 N7        30.21F
DTN SHREVEPORT SUNNY     59  23  25 NW8       30.22F

$$

LAZ014-016-232100-
NORTHEAST LOUISIANA

CITY           SKY/WX    TMP DP  RH WIND       PRES   REMARKS
MONROE         FAIR      59  25  27 NW8G17    30.20F
TALLULAH       FAIR      56  33  42 NW7       30.19F

$$





USA.gov is the U.S. government's official web portal to all federal, state and local government web resources and services.